Regional Weather Roundup
Issued by NWS

Home | Current Version | Previous Version | Text Only | Print | Product List | Glossary Off
Versions: 1 2 3 4 5 6 7 8 9 10 11 12 13 14 15 16 17 18 19 20 21 22 23 24 25 26 27 28 29 30 31 32 33 34 35 36 37 38 39 40 41 42 43 44 45 46 47 48 49 50

169
ASUS45 KBOU 250610
RWRCO

WEATHER ROUNDUP FOR COLORADO
NATIONAL WEATHER SERVICE DENVER/BOULDER CO
1200 AM MDT WED APR 25 2018

NOTE: "FAIR" INDICATES FEW OR NO CLOUDS BELOW 12000 FEET WITH NO
SIGNIFICANT WEATHER AND/OR OBSTRUCTIONS TO VISIBILITY.

COZ001>005-013-030-031-250700-
...NORTHWEST COLORADO...

CITY           SKY/WX    TMP DP  RH WIND       PRES   REMARKS
CRAIG          FAIR      28  22  78 SW10      30.41R WCI  19
HAYDEN         FAIR      32  22  66 CALM      30.42R
MEEKER         FAIR      33  22  63 N7        30.40S WCI  27
RANGELY        FAIR      41  20  43 NE9G16    30.40R
RABBIT EARS PA FAIR      19  18  93 W6        30.40S WCI  11
STEAMBOAT SPGS FAIR      33  20  60 CALM      30.40R
WALDEN         FAIR      23  16  74 CALM      30.42S
$$

COZ006>008-011-250700-
...WEST CENTRAL VALLEYS...

CITY           SKY/WX    TMP DP  RH WIND       PRES   REMARKS
GRAND JUNCTION FAIR      48  18  30 N9        30.33R
MONTROSE       FAIR      44  16  32 NW6       30.34R
EAGLE          FAIR      37  21  52 SE3       30.39R
RIFLE          FAIR      43  22  43 NW9       30.37R
DELTA          FAIR      47  19  32 CALM      30.31R
NUCLA          FAIR      46  14  27 E9        30.33R
$$

COZ017>023-064>068-250700-
...SOUTHWEST COLORADO...

CITY           SKY/WX    TMP DP  RH WIND       PRES   REMARKS
DURANGO        FAIR      53  23  31 VRB5      30.18R
CORTEZ         FAIR      48  19  31 CALM      30.20R
PAGOSA SPRINGS FAIR      46  24  42 CALM      30.23R
TELLURIDE      FAIR      38  18  45 CALM      30.38S
WOLF CREEK PAS NOT AVBL
$$

COZ009-010-012-014-032>034-037-058>063-250700-
...CENTRAL COLORADO...

CITY           SKY/WX    TMP DP  RH WIND       PRES   REMARKS
ASPEN          FAIR      30  20  66 S8        30.36R WCI  22
BUENA VISTA    CLOUDY    31  28  90 E6        30.40S WCI  25
COPPER MTN     NOT AVBL
BERTHOUD PASS  CLOUDY    14   5  67 NW15G25   30.38S WCI  -1
COTTONWOOD PAS FOG       32  30  93 CALM      30.39S VSB 1/2
GUNNISON       FAIR      38  16  40 N3        30.33R
GRANBY         MOCLDY    30  20  66 NW6       30.40R WCI  24
KREMMLING      FAIR      37  25  60 CALM      30.41S
LEADVILLE      CLOUDY    23  23 100 CALM      30.38R
MONARCH PASS   FAIR      23  12  63 NW10      30.50R WCI  12
SALIDA         CLOUDY    32  29  89 E7        30.49R WCI  26
SUNLIGHT       FAIR      23  12  63 NW7       30.44F WCI  15
WILKERSON PASS CLOUDY   N/A N/A N/A CALM      30.42S
$$

COZ069>075-250700-
...SAN LUIS VALLEY/SANGRE DE CRISTO MOUNTAINS...

CITY           SKY/WX    TMP DP  RH WIND       PRES   REMARKS
ALAMOSA        MOCLDY    34  23  64 SE10      30.29R WCI  26
DEL NORTE      NOT AVBL
LA VETA PASS   CLOUDY    21  19  93 MISG      30.48F FOG
SAGUACHE       NOT AVBL
$$

COZ035-036-038>040-250700-
...NORTHERN COLORADO FRONT RANGE...

CITY           SKY/WX    TMP DP  RH WIND       PRES   REMARKS
DENVER INTL AP CLOUDY    37  28  70 CALM      30.43F
AURORA         NOT AVBL
FRONT RANGE AP CLOUDY    37  32  81 CALM      30.45S
ERIE MUNI ARPT CLOUDY    39  35  85 CALM      30.50S
BOULDER MUN AP DRIZZLE   37  34  87 CALM      30.44S
CENTENNIAL     FLURRIES  34  32  92 W5        30.43S WCI  30
BROOMFIELD     CLOUDY    36  32  87 CALM      30.44F
FORT COLLINS   CLOUDY    38  30  73 SE3       30.44F
LONGMONT       NOT AVBL
$$

COZ041-046-047-076>085-087-088-250700-
...PIKES PEAK/PALMER DIVIDE AND SOUTHERN FOOTHILLS...

CITY           SKY/WX    TMP DP  RH WIND       PRES   REMARKS
COLO. SPRINGS  FAIR      33  29  85 N12       30.42S WCI  24
A. F. ACADEMY  NOT AVBL
SCHRIEVER AFB  NOT AVBL
CHEYENNE MTN   NOT AVBL
ELLICOTT         N/A    N/A N/A N/A N6        30.41S
FALCON         CLOUDY    31  29  92 N7        30.42S WCI  24
FORT CARSON    NOT AVBL
LIMON          CLOUDY    32  30  92 NW10      30.41S WCI  24
MONUMENT HILL  CLOUDY    28  28 100 NW8       30.43S WCI  20
CANON CITY     CLOUDY    36  36 100 NW5       30.44S
WALSENBURG     NOT AVBL
TRINIDAD       LGT SNOW  33  32  96 CALM      30.43S FOG
$$

COZ042>045-048>051-090-091-250700-
...NORTHEAST COLORADO...

CITY           SKY/WX    TMP DP  RH WIND       PRES   REMARKS
GREELEY ARPT   CLOUDY    39  29  67 CALM      30.45F
AKRON          FAIR      29  27  92 NW6       30.41F WCI  23
BURLINGTON     FAIR      34  30  85 N13       30.40R WCI  25
WRAY           FAIR      32  30  93 NW6       30.41F WCI  26
YUMA           CLOUDY    32  28  86 NW8       30.41F WCI  25
STERLING       NOT AVBL
HOLYOKE        FAIR      37  32  81 N10       30.42F
FORT MORGAN    FAIR      32  26  77 NW7       30.44F WCI  26
$$

COZ086-089-092>099-250700-
...SOUTHEAST COLORADO...

CITY           SKY/WX    TMP DP  RH WIND       PRES   REMARKS
PUEBLO         MOCLDY    36  34  92 W5        30.44S
LA JUNTA       CLOUDY    38  36  92 W12       30.43F
LAMAR          CLOUDY    40  36  86 N8        30.39F
SPRINGFIELD      N/A     34  33  96 NW15      30.38R WCI  24
$$




USA.gov is the U.S. government's official web portal to all federal, state and local government web resources and services.